This is the latest recevied weather packets stored in our database for station/object SQ7RAF-15. If no packets are shown the sender has not sent any weather packets the latest 10 day(s).
| Time | Temp. | Humidity | Pressure | Rain* | Wind** | Luminosity | Snow |
|---|---|---|---|---|---|---|---|
| 1777647626 | 20° C | 42% | 1024.8 hPa | 0 mm | - | 55 W/m² | - |
| 1777647337 | 20° C | 44% | 1024.9 hPa | 0 mm | - | 52 W/m² | - |
| 1777647019 | 20° C | 43% | 1024.8 hPa | 0 mm | - | 101 W/m² | - |
| 1777646746 | 20.56° C | 41% | 1024.9 hPa | 0 mm | - | 87 W/m² | - |
| 1777646426 | 20.56° C | 42% | 1024.9 hPa | 0 mm | - | 81 W/m² | - |
| 1777646122 | 20.56° C | 42% | 1024.9 hPa | 0 mm | - | 147 W/m² | - |
| 1777645834 | 20.56° C | 43% | 1024.9 hPa | 0 mm | - | 173 W/m² | - |
| 1777645545 | 20.56° C | 43% | 1025 hPa | 0 mm | - | 210 W/m² | - |
| 1777645226 | 20.56° C | 43% | 1025 hPa | 0 mm | - | 131 W/m² | - |
| 1777644938 | 20.56° C | 43% | 1025 hPa | 0 mm | - | 258 W/m² | - |
| 1777644617 | 21.11° C | 42% | 1025.1 hPa | 0 mm | - | 359 W/m² | - |
| 1777644329 | 20.56° C | 42% | 1025.2 hPa | 0 mm | - | 403 W/m² | - |
| 1777644041 | 20.56° C | 43% | 1025.1 hPa | 0 mm | - | 301 W/m² | - |
| 1777643721 | 20.56° C | 42% | 1025.1 hPa | 0 mm | - | 371 W/m² | - |
| 1777643433 | 20.56° C | 41% | 1025.1 hPa | 0 mm | - | 359 W/m² | - |
| 1777643136 | 21.11° C | 43% | 1025.2 hPa | 0 mm | - | 299 W/m² | - |
| 1777642842 | 20° C | 44% | 1025.2 hPa | 0 mm | - | 323 W/m² | - |
| 1777642522 | 20° C | 44% | 1025.2 hPa | 0 mm | - | 448 W/m² | - |
| 1777642219 | 20.56° C | 44% | 1025.2 hPa | 0 mm | - | 362 W/m² | - |
| 1777641962 | 20.56° C | 43% | 1025.3 hPa | 0 mm | - | 475 W/m² | - |
| 1777641625 | 20.56° C | 44% | 1025.3 hPa | 0 mm | - | 524 W/m² | - |
| 1777641337 | 20.56° C | 43% | 1025.4 hPa | 0 mm | - | 519 W/m² | - |
| 1777641039 | 20.56° C | 44% | 1025.4 hPa | 0 mm | - | 512 W/m² | - |
| 1777640745 | 20° C | 45% | 1025.4 hPa | 0 mm | - | 495 W/m² | - |
| 1777640426 | 20° C | 45% | 1025.6 hPa | 0 mm | - | 492 W/m² | - |
* Rain latest hour (hover to see other rain measurements)
** Current wind speed in m/s (hover to see current wind gust speed)